Weather History for Fergus Falls, MN

Change the Weather History Date:

Wednesday, June 19, 2013

  Actual Average Record
Temperature  
Mean Temperature 74 °F -  
Max Temperature 86 °F 75 °F 94 °F (1988)
Min Temperature 62 °F 54 °F 42 °F (1970)
Cooling Degree Days 9    
Growing Degree Days 24 (Base 50)    
Moisture  
Dew Point 56 °F    
Average Humidity 53    
Maximum Humidity 77    
Minimum Humidity 33    
Precipitation  
Precipitation 0.00 in - - ()
Sea Level Pressure  
Sea Level Pressure 29.93 in    
Wind  
Wind Speed 9 mph (SSE)    
Max Wind Speed 16 mph    
Max Gust Speed 20 mph    
Visibility 10 miles    
Events      
Averages and records for this station are not official NWS values.
T = Trace of Precipitation, MM = Missing Value Source: NWS Daily Summary

Daily Weather History Graph

Daily Weather History Graph

Search for Another Location

Airport:

Trip Planner

Search our weather history database for the weather conditions in past years. The results will help you decide how hot, cold, wet, or windy it might be!

Date:

Astronomy

Jun. 19, 2013 Rise Set
Actual Time 5:32 AM CDT 9:19 PM CDT
Civil Twilight 4:53 AM CDT 9:58 PM CDT
Nautical Twilight 4:00 AM CDT 10:51 PM CDT
Astronomical Twilight 2:45 AM CDT 12:06 AM CDT
Moon 5:04 PM CDT (6/19) 2:29 AM CDT (6/19)
Length of Visible Light 17h 05m
Length of Day
15h 47m
Waxing Gibbous, 80% of the Moon is Illuminated
Jun 19
Waxing Gibbous
Jun 23
Full
Jun 29
Last Quarter
Jul 8
New
Jul 15
First Quarter

Hourly Weather History & Observations

Time (CDT) Temp. Heat Index Dew Point Humidity Pressure Visibility Wind Dir Wind Speed Gust Speed Precip Events Conditions
12:13 AM 66.2 °F - 53.6 °F 64% 29.99 in 10.0 mi SE 8.1 mph - N/A   Clear
12:33 AM 66.2 °F - 55.4 °F 68% 30.00 in 10.0 mi SE 8.1 mph - N/A   Clear
12:53 AM 66.2 °F - 55.4 °F 68% 30.00 in 10.0 mi SE 6.9 mph - N/A   Clear
1:13 AM 66.2 °F - 55.4 °F 68% 30.00 in 10.0 mi SSE 9.2 mph - N/A   Clear
1:33 AM 64.4 °F - 55.4 °F 73% 30.00 in 10.0 mi SSE 9.2 mph - N/A   Clear
1:53 AM 64.4 °F - 55.4 °F 73% 29.99 in 10.0 mi SSE 8.1 mph - N/A   Clear
2:13 AM 64.4 °F - 55.4 °F 73% 29.99 in 10.0 mi SSE 8.1 mph - N/A   Clear
2:33 AM 64.4 °F - 55.4 °F 73% 29.99 in 10.0 mi SSE 8.1 mph - N/A   Clear
2:53 AM 62.6 °F - 55.4 °F 77% 29.99 in 10.0 mi SSE 8.1 mph - N/A   Clear
3:13 AM 64.4 °F - 55.4 °F 73% 29.99 in 10.0 mi SSE 6.9 mph - N/A   Clear
3:33 AM 62.6 °F - 55.4 °F 77% 29.99 in 10.0 mi SSE 8.1 mph - N/A   Clear
3:53 AM 62.6 °F - 55.4 °F 77% 29.99 in 10.0 mi SSE 8.1 mph - N/A   Clear
4:13 AM 64.4 °F - 55.4 °F 73% 29.99 in 10.0 mi SE 6.9 mph - N/A   Scattered Clouds
4:33 AM 64.4 °F - 55.4 °F 73% 29.99 in 10.0 mi SE 8.1 mph - N/A   Mostly Cloudy
4:53 AM 64.4 °F - 57.2 °F 77% 29.99 in 10.0 mi SE 8.1 mph - N/A   Overcast
5:14 AM 64.4 °F - 57.2 °F 77% 29.99 in 10.0 mi SE 5.8 mph - N/A   Overcast
5:33 AM 64.4 °F - 57.2 °F 77% 30.00 in 10.0 mi SSE 6.9 mph - N/A   Overcast
5:53 AM 66.2 °F - 57.2 °F 73% 30.00 in 10.0 mi SSE 9.2 mph - N/A   Overcast
6:14 AM 66.2 °F - 57.2 °F 73% 29.99 in 10.0 mi SE 8.1 mph - N/A   Mostly Cloudy
6:33 AM 64.4 °F - 57.2 °F 77% 29.99 in 10.0 mi SSE 8.1 mph - N/A   Scattered Clouds
6:53 AM 64.4 °F - 57.2 °F 77% 29.99 in 10.0 mi SSE 8.1 mph - N/A   Clear
7:14 AM 66.2 °F - 57.2 °F 73% 29.98 in 10.0 mi SSE 9.2 mph - N/A   Clear
7:33 AM 68.0 °F - 57.2 °F 68% 29.98 in 10.0 mi SSE 9.2 mph - N/A   Clear
7:53 AM 69.8 °F - 57.2 °F 64% 29.98 in 10.0 mi SSE 10.4 mph - N/A   Clear
8:13 AM 69.8 °F - 59.0 °F 68% 29.98 in 10.0 mi SSE 11.5 mph - N/A   Clear
8:33 AM 71.6 °F - 57.2 °F 60% 29.97 in 10.0 mi SSE 12.7 mph - N/A   Clear
8:53 AM 73.4 °F - 57.2 °F 57% 29.98 in 10.0 mi SSE 13.8 mph - N/A   Clear
9:13 AM 73.4 °F - 57.2 °F 57% 29.97 in 10.0 mi SSE 11.5 mph 17.3 mph N/A   Clear
9:33 AM 75.2 °F - 55.4 °F 50% 29.97 in 10.0 mi SSE 16.1 mph - N/A   Clear
9:53 AM 77.0 °F - 57.2 °F 50% 29.97 in 10.0 mi South 12.7 mph 19.6 mph N/A   Clear
10:13 AM 77.0 °F - 57.2 °F 50% 29.96 in 10.0 mi South 11.5 mph - N/A   Clear
10:33 AM 78.8 °F - 57.2 °F 47% 29.96 in 10.0 mi South 10.4 mph 16.1 mph N/A   Clear
10:53 AM 78.8 °F - 57.2 °F 47% 29.96 in 10.0 mi South 9.2 mph - N/A   Clear
11:13 AM 78.8 °F - 57.2 °F 47% 29.95 in 10.0 mi SSW 9.2 mph 16.1 mph N/A   Clear
11:33 AM 80.6 °F 80.8 °F 57.2 °F 45% 29.95 in 10.0 mi South 10.4 mph - N/A   Clear
11:53 AM 78.8 °F - 55.4 °F 44% 29.95 in 10.0 mi South 8.1 mph - N/A   Clear
12:13 PM 80.6 °F 80.5 °F 55.4 °F 42% 29.94 in 10.0 mi South 10.4 mph - N/A   Clear
12:33 PM 80.6 °F 80.3 °F 53.6 °F 39% 29.94 in 10.0 mi South 10.4 mph - N/A   Clear
12:53 PM 82.4 °F 81.4 °F 53.6 °F 37% 29.93 in 10.0 mi South 6.9 mph - N/A   Clear
1:13 PM 82.4 °F - 51.8 °F 35% 29.93 in 10.0 mi SSW 10.4 mph - N/A   Clear
1:33 PM 82.4 °F - 51.8 °F 35% 29.92 in 10.0 mi South 9.2 mph - N/A   Clear
1:53 PM 82.4 °F 81.4 °F 53.6 °F 37% 29.92 in 10.0 mi South 6.9 mph 16.1 mph N/A   Scattered Clouds
2:13 PM 84.2 °F - 51.8 °F 33% 29.91 in 10.0 mi SSW 8.1 mph - N/A   Scattered Clouds
2:33 PM 82.4 °F 81.4 °F 53.6 °F 37% 29.91 in 10.0 mi South 3.5 mph - N/A   Scattered Clouds
2:53 PM 84.2 °F 82.8 °F 53.6 °F 35% 29.90 in 10.0 mi SSW 8.1 mph - N/A   Scattered Clouds
3:13 PM 84.2 °F 82.8 °F 53.6 °F 35% 29.90 in 10.0 mi South 10.4 mph - N/A   Scattered Clouds
3:33 PM 84.2 °F 82.8 °F 53.6 °F 35% 29.89 in 10.0 mi SW 8.1 mph - N/A   Scattered Clouds
3:53 PM 84.2 °F 82.8 °F 53.6 °F 35% 29.89 in 10.0 mi SSW 9.2 mph - N/A   Clear
4:13 PM 84.2 °F 82.8 °F 53.6 °F 35% 29.89 in 10.0 mi SW 5.8 mph - N/A   Clear
4:33 PM 84.2 °F 82.8 °F 53.6 °F 35% 29.88 in 10.0 mi South 9.2 mph - N/A   Clear
4:53 PM 84.2 °F 82.8 °F 53.6 °F 35% 29.88 in 10.0 mi SSW 11.5 mph 17.3 mph N/A   Clear
5:13 PM 84.2 °F 82.8 °F 53.6 °F 35% 29.88 in 10.0 mi SSW 10.4 mph - N/A   Clear
5:33 PM 86.0 °F 84.2 °F 53.6 °F 33% 29.87 in 10.0 mi South 8.1 mph - N/A   Clear
5:53 PM 84.2 °F 82.8 °F 53.6 °F 35% 29.87 in 10.0 mi SSE 9.2 mph - N/A   Scattered Clouds
6:13 PM 84.2 °F 82.8 °F 53.6 °F 35% 29.87 in 10.0 mi South 9.2 mph - N/A   Scattered Clouds
6:33 PM 84.2 °F 82.8 °F 53.6 °F 35% 29.87 in 10.0 mi South 8.1 mph - N/A   Mostly Cloudy
6:53 PM 84.2 °F - 51.8 °F 33% 29.87 in 10.0 mi SE 6.9 mph - N/A   Mostly Cloudy
7:13 PM 84.2 °F 82.8 °F 53.6 °F 35% 29.86 in 10.0 mi ESE 6.9 mph - N/A   Scattered Clouds
7:33 PM 82.4 °F 81.7 °F 55.4 °F 39% 29.86 in 10.0 mi ESE 6.9 mph - N/A   Scattered Clouds
7:53 PM 82.4 °F 81.7 °F 55.4 °F 39% 29.86 in 10.0 mi ESE 8.1 mph - N/A   Scattered Clouds
8:13 PM 82.4 °F 81.7 °F 55.4 °F 39% 29.86 in 10.0 mi ESE 6.9 mph - N/A   Scattered Clouds
8:34 PM 80.6 °F 80.8 °F 57.2 °F 45% 29.86 in 10.0 mi ESE 8.1 mph - N/A   Clear
8:53 PM 80.6 °F 80.5 °F 55.4 °F 42% 29.87 in 10.0 mi ESE 9.2 mph - N/A   Clear
9:13 PM 78.8 °F - 57.2 °F 47% 29.87 in 10.0 mi ESE 8.1 mph - N/A   Clear
9:34 PM 78.8 °F - 57.2 °F 47% 29.87 in 10.0 mi ESE 8.1 mph - N/A   Clear
9:53 PM 78.8 °F - 57.2 °F 47% 29.88 in 10.0 mi ESE 8.1 mph - N/A   Scattered Clouds
10:13 PM 78.8 °F - 57.2 °F 47% 29.89 in 10.0 mi ESE 9.2 mph - N/A   Scattered Clouds
10:33 PM 77.0 °F - 57.2 °F 50% 29.89 in 10.0 mi ESE 8.1 mph - N/A   Clear
10:53 PM 75.2 °F - 57.2 °F 53% 29.88 in 10.0 mi ESE 9.2 mph - N/A   Clear
11:13 PM 75.2 °F - 57.2 °F 53% 29.87 in 10.0 mi ESE 9.2 mph - N/A   Clear
11:33 PM 75.2 °F - 57.2 °F 53% 29.87 in 10.0 mi ESE 8.1 mph - N/A   Clear
11:53 PM 75.2 °F - 57.2 °F 53% 29.87 in 10.0 mi SE 10.4 mph - N/A   Clear